FW0668 Weather Reports


Display with metric or nautical units.
time (UTC)temp
F
wind
direction
speed
MPH
gust
MPH
rain 1hr
in
rain 24hr
in
rain mn
in
humidity
%
barometer
mb
20260905214003 90 357 5.0 8.0 0.00 0.00 0.00 70 1013.1
20260905213503 90 349 8.0 15.0 0.00 0.00 0.00 71 1013.1
20260905213003 91 357 8.0 13.0 0.00 0.00 0.00 70 1013.1
20260905212503 91 347 8.0 13.0 0.00 0.00 0.00 68 1013.1
20260905212003 91 343 8.0 10.0 0.00 0.00 0.00 69 1013.1
20260905211503 92 17 8.0 14.0 0.00 0.00 0.00 68 1013.1
20260905211003 92 357 6.0 9.0 0.00 0.00 0.00 69 1013.1
20260905210503 92 353 7.0 14.0 0.00 0.00 0.00 68 1013.1
20260905210024 91 1 6.0 9.0 0.00 0.00 0.00 71 1013.4
20260905205503 91 342 6.0 9.0 0.00 0.00 0.00 72 1013.1
20260905205003 91 355 7.0 9.0 0.00 0.00 0.00 70 1013.4
20260905204503 91 354 7.0 10.0 0.00 0.00 0.00 69 1013.4
20260905204003 91 341 6.0 7.0 0.00 0.00 0.00 71 1013.4
20260905203503 91 353 8.0 10.0 0.00 0.00 0.00 71 1013.4
20260905203003 90 342 9.0 15.0 0.00 0.00 0.00 70 1013.4
20260905202503 91 337 7.0 14.0 0.00 0.00 0.00 71 1013.4
20260905202024 91 311 2.0 8.0 0.00 0.00 0.00 68 1013.4
20260905201503 91 331 5.0 10.0 0.00 0.00 0.00 69 1013.4
20260905201024 92 349 5.0 10.0 0.00 0.00 0.00 67 1013.4
20260905200503 92 329 4.0 9.0 0.00 0.00 0.00 66 1013.4
20260905200003 92 336 7.0 13.0 0.00 0.00 0.00 66 1013.8
20260905195503 92 351 9.0 16.0 0.00 0.00 0.00 64 1013.4
20260905195003 93 331 7.0 14.0 0.00 0.00 0.00 64 1013.4
20260905194503 92 336 5.0 7.0 0.00 0.00 0.00 67 1013.4
20260905194024 92 341 6.0 10.0 0.00 0.00 0.00 70 1013.8
20260905193503 92 351 6.0 11.0 0.00 0.00 0.00 67 1013.8
20260905193003 93 344 8.0 14.0 0.00 0.00 0.00 66 1013.8
20260905192503 92 300 2.0 4.0 0.00 0.00 0.00 66 1013.8
20260905192024 92 317 4.0 9.0 0.00 0.00 0.00 64 1013.8
20260905191503 92 334 7.0 13.0 0.00 0.00 0.00 65 1014.1
20260905191003 92 335 5.0 9.0 0.00 0.00 0.00 68 1014.1
20260905190503 91 334 5.0 7.0 0.00 0.00 0.00 69 1014.1
20260905190003 90 323 3.0 6.0 0.00 0.00 0.00 69 1014.1
20260905185524 92 334 7.0 7.0 0.00 0.00 0.00 65 1014.1
20260905185024 92 322 4.0 7.0 0.00 0.00 0.00 64 1014.1
20260905184503 92 320 3.0 7.0 0.00 0.00 0.00 68 1014.1
20260905184024 92 333 5.0 8.0 0.00 0.00 0.00 66 1014.1
20260905183503 91 360 5.0 11.0 0.00 0.00 0.00 68 1014.1
20260905183003 91 351 6.0 8.0 0.00 0.00 0.00 68 1014.5
20260905182503 92 348 7.0 11.0 0.00 0.00 0.00 65 1014.1
20260905182003 91 339 5.0 11.0 0.00 0.00 0.00 69 1014.1
20260905181503 91 358 7.0 11.0 0.00 0.00 0.00 68 1014.5
20260905181003 91 338 7.0 9.0 0.00 0.00 0.00 67 1014.5
20260905180503 92 325 1.0 4.0 0.00 0.00 0.00 66 1014.5
20260905180003 92 323 5.0 10.0 0.00 0.00 0.00 66 1014.5
20260905175503 92 320 6.0 9.0 0.00 0.00 0.00 66 1014.5
20260905175003 92 349 6.0 8.0 0.00 0.00 0.00 65 1014.5
20260905174524 92 318 5.0 7.0 0.00 0.00 0.00 66 1014.5
20260905174003 92 318 2.0 3.0 0.00 0.00 0.00 62 1014.5
20260905173503 92 311 3.0 6.0 0.00 0.00 0.00 66 1014.5
20260905173003 91 320 4.0 9.0 0.00 0.00 0.00 64 1014.5
20260905172503 91 326 2.0 7.0 0.00 0.00 0.00 66 1014.5
20260905172003 92 321 3.0 9.0 0.00 0.00 0.00 64 1014.5
20260905171524 92 314 4.0 10.0 0.00 0.00 0.00 65 1014.8
20260905171003 91 326 3.0 7.0 0.00 0.00 0.00 66 1014.8
20260905170524 90 333 4.0 8.0 0.00 0.00 0.00 67 1014.8
20260905170003 90 344 6.0 8.0 0.00 0.00 0.00 68 1014.8
20260905165503 90 325 4.0 7.0 0.00 0.00 0.00 69 1014.8
20260905165024 91 325 5.0 9.0 0.00 0.00 0.00 67 1014.8
20260905164503 91 299 2.0 8.0 0.00 0.00 0.00 67 1014.8
20260905164024 92 315 4.0 9.0 0.00 0.00 0.00 66 1014.8
20260905163503 91 291 3.0 7.0 0.00 0.00 0.00 70 1014.8
20260905163003 91 324 4.0 3.0 0.00 0.00 0.00 67 1014.8
20260905162503 91 265 2.0 4.0 0.00 0.00 0.00 70 1014.8
20260905162003 90 269 2.0 6.0 0.00 0.00 0.00 73 1014.8
20260905161503 90 272 2.0 2.0 0.00 0.00 0.00 70 1014.8
20260905161003 90 260 3.0 6.0 0.00 0.00 0.00 68 1014.8
20260905160503 90 265 3.0 4.0 0.00 0.00 0.00 69 1014.8
20260905160003 90 263 3.0 2.0 0.00 0.00 0.00 67 1014.8
20260905155503 90 278 3.0 7.0 0.00 0.00 0.00 67 1014.8
20260905155003 90 310 2.0 7.0 0.00 0.00 0.00 65 1014.8
20260905154503 90 318 3.0 6.0 0.00 0.00 0.00 67 1014.8
20260905154003 90 321 3.0 10.0 0.00 0.00 0.00 69 1014.8
20260905153503 90 278 0.0 1.0 0.00 0.00 0.00 72 1014.8
20260905153024 89 263 2.0 6.0 0.00 0.00 0.00 70 1014.8
20260905152524 89 268 5.0 6.0 0.00 0.00 0.00 72 1014.8
20260905152003 89 269 1.0 4.0 0.00 0.00 0.00 73 1014.8
20260905151503 88 264 2.0 6.0 0.00 0.00 0.00 72 1014.8
20260905150503 88 260 2.0 3.0 0.00 0.00 0.00 73 1014.8
20260905150003 88 262 2.0 4.0 0.00 0.00 0.00 73 1014.5
20260905145503 87 269 2.0 6.0 0.00 0.00 0.00 72 1014.5
20260905145003 87 271 2.0 7.0 0.00 0.00 0.00 73 1014.8
20260905144524 87 278 3.0 4.0 0.00 0.00 0.00 75 1014.5
20260905144003 86 269 2.0 3.0 0.00 0.00 0.00 76 1014.5
20260905143503 86 262 2.0 4.0 0.00 0.00 0.00 76 1014.5
20260905143003 86 269 2.0 4.0 0.00 0.00 0.00 78 1014.8
20260905142524 86 258 1.0 2.0 0.00 0.00 0.00 80 1014.8
20260905142003 85 265 1.0 4.0 0.00 0.00 0.00 81 1014.8
20260905141503 84 258 1.0 1.0 0.00 0.00 0.00 82 1014.8
20260905141003 84 270 1.0 3.0 0.00 0.00 0.00 83 1014.8
20260905140524 83 282 0.0 0.0 0.00 0.00 0.00 82 1014.8
20260905140004 83 250 1.0 2.0 0.00 0.00 0.00 83 1014.8
20260905135503 83 268 3.0 4.0 0.00 0.00 0.00 84 1014.8
20260905135003 82 269 2.0 6.0 0.00 0.00 0.00 85 1014.8
20260905134503 82 253 6.0 7.0 0.00 0.00 0.00 85 1014.5
20260905134024 82 257 5.0 6.0 0.00 0.00 0.00 85 1014.8
20260905133503 82 256 4.0 7.0 0.00 0.00 0.00 87 1014.8
20260905133003 81 257 4.0 7.0 0.00 0.00 0.00 89 1014.8
20260905132503 81 254 2.0 4.0 0.00 0.00 0.00 92 1014.8
20260905132024 80 255 2.0 4.0 0.00 0.00 0.00 92 1014.8
20260905131503 80 247 1.0 2.0 0.00 0.00 0.00 92 1014.8
20260905131003 79 237 2.0 2.0 0.00 0.00 0.00 94 1014.8
20260905130503 79 245 2.0 2.0 0.00 0.00 0.00 95 1014.8
20260905130003 78 244 1.0 2.0 0.00 0.00 0.00 95 1014.8
20260905125503 78 229 1.0 2.0 0.00 0.00 0.00 96 1014.8
20260905125003 78 229 1.0 1.0 0.00 0.00 0.00 96 1014.5
20260905124503 77 232 0.0 1.0 0.00 0.00 0.00 96 1014.8
20260905124003 77 220 0.0 1.0 0.00 0.00 0.00 97 1014.8
20260905123503 77 0 0.0 0.0 0.00 0.00 0.00 97 1014.5
20260905123003 76 0 0.0 0.0 0.00 0.00 0.00 97 1014.5
20260905122503 76 0 0.0 0.0 0.00 0.00 0.00 97 1014.8
20260905122003 76 0 0.0 0.0 0.00 0.00 0.00 97 1014.5
20260905121524 76 0 0.0 0.0 0.00 0.00 0.00 100 1014.5
20260905121003 75 0 0.0 0.0 0.00 0.00 0.00 100 1014.5
20260905120503 75 0 0.0 0.0 0.00 0.00 0.00 100 1014.5
20260905120003 75 0 0.0 0.0 0.00 0.00 0.00 100 1014.5
20260905115524 75 0 0.0 0.0 0.00 0.00 0.00 100 1014.1
20260905115003 75 0 0.0 0.0 0.00 0.00 0.00 97 1014.5
20260905114503 75 0 0.0 0.0 0.00 0.00 0.00 97 1014.5
20260905114003 74 227 0.0 0.0 0.00 0.00 0.00 97 1014.5
20260905113503 75 0 0.0 0.0 0.00 0.00 0.00 97 1014.1
20260905113003 75 0 0.0 0.0 0.00 0.00 0.00 97 1014.1
20260905112503 75 0 0.0 0.0 0.00 0.00 0.00 97 1014.1
20260905112003 75 0 0.0 0.0 0.00 0.00 0.00 96 1014.1
20260905111503 75 0 0.0 0.0 0.00 0.00 0.00 96 1014.1
20260905111024 75 0 0.0 0.0 0.00 0.00 0.00 96 1014.5
20260905110503 75 0 0.0 0.0 0.00 0.00 0.00 96 1014.1
20260905110003 76 0 0.0 0.0 0.00 0.00 0.00 96 1014.1
20260905105503 76 0 0.0 0.0 0.00 0.00 0.00 96 1014.1
20260905105003 76 0 0.0 0.0 0.00 0.00 0.00 95 1014.1
20260905104524 76 0 0.0 0.0 0.00 0.00 0.00 95 1014.1
20260905104003 76 0 0.0 0.0 0.00 0.00 0.00 95 1014.1
20260905103503 76 0 0.0 0.0 0.00 0.00 0.00 95 1014.5
20260905103003 76 0 0.0 0.0 0.00 0.00 0.00 95 1014.1
20260905102503 76 0 0.0 0.0 0.00 0.00 0.00 95 1014.5
20260905102024 76 0 0.0 0.0 0.00 0.00 0.00 95 1014.5
20260905101503 76 0 0.0 0.0 0.00 0.00 0.00 95 1014.5
20260905101024 76 0 0.0 0.0 0.00 0.00 0.00 96 1014.5
20260905100003 76 243 0.0 0.0 0.00 0.00 0.00 96 1014.5
20260905095503 76 0 0.0 0.0 0.00 0.00 0.00 96 1014.5
20260905095003 76 0 0.0 0.0 0.00 0.00 0.00 96 1014.5
20260905094524 76 290 0.0 0.0 0.00 0.00 0.00 96 1014.5
20260905094003 76 316 0.0 0.0 0.00 0.00 0.00 96 1014.5
20260905093503 76 322 0.0 2.0 0.00 0.00 0.00 96 1014.5
20260905093003 76 0 0.0 0.0 0.00 0.00 0.00 96 1014.5
20260905092503 76 0 0.0 0.0 0.00 0.00 0.00 96 1014.5
20260905092003 76 0 0.0 0.0 0.00 0.00 0.00 96 1014.1
20260905091503 76 0 0.0 0.0 0.00 0.00 0.00 96 1014.1
20260905091003 76 0 0.0 0.0 0.00 0.00 0.00 95 1014.1
20260905090503 76 0 0.0 0.0 0.00 0.00 0.00 96 1014.1
20260905090003 76 0 0.0 0.0 0.00 0.00 0.00 96 1014.5
20260905085503 76 313 0.0 0.0 0.00 0.00 0.00 97 1014.1
20260905085003 76 323 1.0 1.0 0.00 0.00 0.00 97 1014.1
20260905084503 76 326 2.0 2.0 0.00 0.00 0.00 97 1014.1
20260905084003 76 0 0.0 0.0 0.00 0.00 0.00 97 1014.1
20260905083524 75 0 0.0 0.0 0.00 0.00 0.00 100 1014.1
20260905083003 75 0 0.0 0.0 0.00 0.00 0.00 100 1014.1
20260905082503 75 0 0.0 0.0 0.00 0.00 0.00 97 1014.1
20260905082003 75 0 0.0 0.0 0.00 0.00 0.00 96 1014.1
20260905081503 75 0 0.0 0.0 0.00 0.00 0.00 96 1014.1
20260905081003 76 0 0.0 0.0 0.00 0.00 0.00 96 1014.1
20260905080503 76 0 0.0 0.0 0.00 0.00 0.00 97 1013.8
20260905080003 76 0 0.0 0.0 0.00 0.00 0.00 96 1013.8
20260905075503 76 0 0.0 0.0 0.00 0.00 0.00 96 1013.8
20260905075003 76 0 0.0 0.0 0.00 0.00 0.00 96 1014.1
20260905074503 76 0 0.0 0.0 0.00 0.00 0.00 96 1013.8
20260905073524 76 0 0.0 0.0 0.00 0.00 0.00 95 1013.8
20260905073003 76 153 0.0 0.0 0.00 0.00 0.00 95 1013.8
20260905072503 76 153 1.0 1.0 0.00 0.00 0.00 95 1013.8
20260905072003 76 150 1.0 1.0 0.00 0.00 0.00 94 1014.1
20260905071524 76 146 0.0 2.0 0.00 0.00 0.00 94 1014.1
20260905071003 76 0 0.0 0.0 0.00 0.00 0.00 94 1014.5
20260905070503 76 0 0.0 0.0 0.00 0.00 0.00 95 1014.5
20260905070003 76 0 0.0 0.0 0.00 0.00 0.00 94 1014.1
20260905065503 77 0 0.0 0.0 0.00 0.00 0.00 94 1014.5
20260905065003 77 0 0.0 0.0 0.00 0.00 0.00 94 1014.5
20260905064503 77 0 0.0 0.0 0.00 0.00 0.00 94 1014.5
20260905063503 78 0 0.0 0.0 0.00 0.00 0.00 93 1014.5
20260905063003 78 0 0.0 0.0 0.00 0.00 0.00 93 1014.5
20260905062503 78 0 0.0 0.0 0.00 0.00 0.00 93 1014.5
20260905062003 78 0 0.0 0.0 0.00 0.00 0.00 93 1014.5
20260905061503 78 0 0.0 0.0 0.00 0.00 0.00 93 1014.5
20260905061003 78 0 0.0 0.0 0.00 0.00 0.00 92 1014.5
20260905060503 78 0 0.0 0.0 0.00 0.00 0.00 92 1014.5
20260905060003 78 0 0.0 0.0 0.00 0.00 0.00 92 1014.5
20260905055524 78 0 0.0 0.0 0.00 0.00 0.00 92 1014.5
20260905055003 78 0 0.0 0.0 0.00 0.00 0.00 93 1014.5
20260905054503 78 0 0.0 0.0 0.00 0.00 0.00 94 1014.8
20260905054003 78 0 0.0 0.0 0.00 0.00 0.00 94 1014.8
20260905053503 77 0 0.0 0.0 0.00 0.00 0.00 94 1014.5
20260905053003 77 0 0.0 0.0 0.00 0.00 0.00 95 1014.8
20260905052003 77 0 0.0 0.0 0.00 0.00 0.00 94 1014.5
20260905051503 77 0 0.0 0.0 0.00 0.00 0.00 94 1014.8
20260905051003 77 0 0.0 0.0 0.00 0.00 0.00 94 1014.8
20260905050524 77 0 0.0 0.0 0.00 0.00 0.00 94 1014.8
20260905050003 77 0 0.0 0.0 0.00 0.00 0.00 93 1014.8
20260905045503 78 0 0.0 0.0 0.00 0.00 0.00 93 1014.8
20260905045003 78 0 0.0 0.0 0.00 0.00 0.00 93 1014.8
20260905044503 78 0 0.0 0.0 0.00 0.00 0.00 93 1014.8
20260905044024 78 0 0.0 0.0 0.00 0.00 0.00 93 1014.8
20260905043503 78 0 0.0 0.0 0.00 0.00 0.00 93 1014.8
20260905043003 78 0 0.0 0.0 0.00 0.00 0.00 93 1014.8
20260905042003 78 0 0.0 0.0 0.00 0.00 0.00 93 1014.8
20260905041524 78 0 0.0 0.0 0.00 0.00 0.00 93 1014.8
20260905041024 78 0 0.0 0.0 0.00 0.00 0.00 93 1015.2
20260905040524 78 0 0.0 0.0 0.00 0.00 0.00 94 1015.2
20260905040003 78 0 0.0 0.0 0.00 0.00 0.00 93 1015.2
20260905035503 78 0 0.0 0.0 0.00 0.00 0.00 93 1014.8
20260905035003 79 0 0.0 0.0 0.00 0.00 0.00 92 1014.8
20260905034503 79 0 0.0 0.0 0.00 0.00 0.00 91 1014.8
20260905034003 79 0 0.0 0.0 0.00 0.00 0.00 91 1015.2
20260905033503 80 0 0.0 0.0 0.00 0.00 0.00 90 1014.8
20260905033003 80 0 0.0 0.0 0.00 0.00 0.00 90 1015.2
20260905032503 80 0 0.0 0.0 0.00 0.00 0.00 91 1014.8
20260905032003 80 0 0.0 0.0 0.00 0.00 0.00 91 1014.8
20260905031503 80 0 0.0 0.0 0.00 0.00 0.00 90 1015.2
20260905031003 80 0 0.0 0.0 0.00 0.00 0.00 90 1015.2
20260905030503 80 0 0.0 0.0 0.00 0.00 0.00 91 1014.8
20260905030003 79 0 0.0 0.0 0.00 0.00 0.00 92 1015.2
20260905025524 79 0 0.0 0.0 0.00 0.00 0.00 92 1014.8
20260905025024 79 0 0.0 0.0 0.00 0.00 0.00 92 1014.8
20260905024503 80 0 0.0 0.0 0.00 0.00 0.00 91 1015.2
20260905024024 80 0 0.0 0.0 0.00 0.00 0.00 90 1014.8
20260905023503 80 0 0.0 0.0 0.00 0.00 0.00 90 1014.8
20260905023003 80 0 0.0 0.0 0.00 0.00 0.00 90 1014.8
20260905022503 81 0 0.0 0.0 0.00 0.00 0.00 88 1014.8
20260905022024 81 0 0.0 0.0 0.00 0.00 0.00 87 1014.8
20260905021503 82 0 0.0 0.0 0.00 0.00 0.00 87 1014.8
20260905021024 82 0 0.0 0.0 0.00 0.00 0.00 86 1014.8
20260905020503 82 0 0.0 0.0 0.00 0.00 0.00 86 1014.8
20260905020024 82 0 0.0 0.0 0.00 0.00 0.00 87 1014.8
20260905015503 82 0 0.0 0.0 0.00 0.00 0.00 86 1014.8
20260905015003 82 0 0.0 0.0 0.00 0.00 0.00 86 1014.5
20260905014503 82 0 0.0 0.0 0.00 0.00 0.00 85 1014.5
20260905014003 82 0 0.0 0.0 0.00 0.00 0.00 86 1014.5
20260905013503 83 0 0.0 0.0 0.00 0.00 0.00 85 1014.5
20260905013003 82 1 0.0 0.0 0.00 0.00 0.00 84 1014.5
20260905012503 82 348 1.0 2.0 0.00 0.00 0.00 87 1014.1
20260905012003 82 309 0.0 1.0 0.00 0.00 0.00 87 1014.1
20260905011503 83 321 3.0 6.0 0.00 0.00 0.00 86 1014.1
20260905011024 83 0 0.0 0.0 0.00 0.00 0.00 86 1014.1
20260905010503 83 0 0.0 0.0 0.00 0.00 0.00 86 1014.1
20260905010003 84 0 0.0 0.0 0.00 0.00 0.00 85 1013.8
20260905005503 84 0 0.0 0.0 0.00 0.00 0.00 83 1014.1
20260905005003 85 0 0.0 0.0 0.00 0.00 0.00 82 1013.8
20260905004524 87 211 0.0 0.0 0.00 0.00 0.00 78 1014.1
20260905004003 87 211 1.0 1.0 0.00 0.00 0.00 75 1013.8
20260905003524 87 211 0.0 1.0 0.00 0.00 0.00 76 1014.1
20260905003003 87 211 1.0 1.0 0.00 0.00 0.00 76 1013.8
20260905002503 87 223 0.0 2.0 0.00 0.00 0.00 77 1013.8
20260905002003 88 0 0.0 0.0 0.00 0.00 0.00 74 1013.8
20260905001503 88 0 0.0 0.0 0.00 0.00 0.00 74 1013.8
20260905001003 88 0 0.0 0.0 0.00 0.00 0.00 73 1013.4
20260905000503 89 0 0.0 0.0 0.00 0.00 0.00 71 1013.8
20260905000003 89 0 0.0 0.0 0.00 0.00 0.00 70 1013.8
20260904235524 89 0 0.0 0.0 0.00 0.00 0.00 70 1013.8
20260904235003 90 0 0.0 0.0 0.00 0.00 0.00 72 1013.8
20260904234003 90 0 0.0 0.0 0.00 0.00 0.00 72 1013.8
20260904233503 90 0 0.0 0.0 0.00 0.00 0.00 74 1013.8
20260904233003 91 0 0.0 0.0 0.00 0.00 0.00 74 1013.8
20260904232503 92 231 0.0 0.0 0.00 0.00 0.00 73 1013.8
20260904232003 92 230 0.0 1.0 0.00 0.00 0.00 70 1014.1
20260904231503 92 216 2.0 3.0 0.00 0.00 0.00 68 1013.8
20260904231003 92 217 2.0 2.0 0.00 0.00 0.00 68 1013.8
20260904230524 93 225 2.0 2.0 0.00 0.00 0.00 66 1013.8
20260904230024 93 230 0.0 0.0 0.00 0.00 0.00 66 1014.1
20260904225525 93 233 1.0 2.0 0.00 0.00 0.00 67 1013.8
20260904225003 93 225 2.0 2.0 0.00 0.00 0.00 64 1013.8
20260904224503 93 226 1.0 2.0 0.00 0.00 0.00 66 1014.1
20260904224003 93 225 2.0 2.0 0.00 0.00 0.00 65 1013.8
20260904223503 93 225 2.0 3.0 0.00 0.00 0.00 64 1013.8
20260904223003 93 229 2.0 3.0 0.00 0.00 0.00 64 1013.8
20260904222524 93 230 2.0 3.0 0.00 0.00 0.00 62 1013.8
20260904222024 94 227 2.0 3.0 0.00 0.00 0.00 63 1013.8
20260904221524 94 237 3.0 4.0 0.00 0.00 0.00 63 1013.8
20260904221003 94 231 3.0 6.0 0.00 0.00 0.00 62 1013.8
20260904220503 94 223 5.0 7.0 0.00 0.00 0.00 61 1013.8
20260904220003 94 230 3.0 7.0 0.00 0.00 0.00 62 1013.8
20260904215503 94 230 4.0 7.0 0.00 0.00 0.00 61 1013.8
20260904215024 94 237 5.0 7.0 0.00 0.00 0.00 61 1013.8
20260904214503 94 224 4.0 6.0 0.00 0.00 0.00 58 1013.8